DW1065 Weather Reports


Display with metric or nautical units.
time (UTC)temp
F
wind
direction
speed
MPH
gust
MPH
rain 1hr
in
rain 24hr
in
rain mn
in
humidity
%
barometer
mb
20260504151006 58 201 5.0 17.0 1.40 3.37 2.41 48 999.2
20260504150504 58 245 4.0 16.0 1.40 3.37 2.40 48 999.2
20260504141005 61 217 6.0 14.0 1.40 3.37 2.27 35 999.6
20260504140505 62 226 6.0 16.0 1.40 3.37 2.26 33 999.6
20260504130504 62 277 2.0 5.0 1.40 3.37 2.12 31 999.8
20260504110504 59 296 4.0 12.0 1.40 3.37 1.83 33 1000.2
20260504082004 55 304 3.0 10.0 1.40 3.37 1.45 52 1000.0
20260504081505 55 263 3.0 10.0 1.40 3.37 1.44 52 1000.0
20260504081006 54 356 2.0 7.0 1.40 3.36 1.42 55 1000.0
20260504080504 54 278 2.0 5.0 1.42 3.37 1.41 58 1000.0
20260504050504 47 228 0.0 3.0 1.40 3.37 9.96 92 999.5
20260504045505 47 222 1.0 3.0 1.40 3.37 9.72 92 999.5
20260504045005 47 203 1.0 3.0 1.40 3.37 9.60 92 999.5
20260504044505 47 219 2.0 3.0 1.40 3.36 9.48 92 999.5
20260504044004 46 219 1.0 3.0 1.42 3.37 9.38 92 999.5
20260504043504 46 206 1.0 5.0 1.42 3.37 9.26 92 999.4
20260504043005 46 207 2.0 5.0 1.40 3.37 9.14 92 999.5
20260504041504 47 223 1.0 3.0 1.40 3.37 8.78 91 999.7
20260504041005 47 220 1.0 3.0 1.40 3.36 8.66 91 999.8
20260504040504 47 218 2.0 3.0 1.42 3.37 8.56 91 999.7
20260504040004 47 221 1.0 3.0 1.42 3.37 8.44 91 999.8
20260504035504 47 222 2.0 3.0 1.40 3.37 8.32 91 999.8
20260504035005 47 243 1.0 3.0 1.40 3.37 8.20 91 999.8
20260504034504 47 244 2.0 3.0 1.40 3.37 8.08 91 999.8
20260504034004 47 198 1.0 3.0 1.40 3.37 7.96 91 999.9
20260504033504 47 216 1.0 3.0 1.40 3.36 7.84 91 999.9
20260504033005 47 212 2.0 3.0 1.42 3.37 7.74 91 999.9
20260504032004 47 238 0.0 3.0 1.40 3.37 7.50 91 1000.0
20260504031505 47 206 1.0 3.0 1.40 3.37 7.38 91 1000.0
20260504030504 47 204 0.0 3.0 1.40 3.37 7.14 91 1000.0
20260504030005 47 207 1.0 3.0 1.40 3.36 7.02 91 1000.1
20260504025005 47 170 2.0 6.0 1.42 3.37 6.80 91 1000.0
20260504024504 47 230 2.0 3.0 1.40 3.37 6.68 91 1000.2
20260504024005 47 204 2.0 3.0 1.40 3.37 6.56 91 1000.2
20260504023504 47 207 2.0 3.0 1.40 3.37 6.44 91 1000.3
20260504022005 47 207 1.0 3.0 1.42 3.37 6.10 91 1000.3
20260504021505 47 211 1.0 3.0 1.40 3.37 5.98 91 1000.3
20260504020505 47 205 1.0 3.0 1.40 3.37 5.74 91 1000.4
20260504020005 47 211 1.0 3.0 1.40 3.37 5.62 91 1000.5
20260504015505 47 216 1.0 3.0 1.40 3.36 5.50 91 1000.5
20260504014506 47 206 1.0 3.0 1.42 3.37 5.28 91 1000.5
20260504014006 47 209 1.0 3.0 1.40 3.37 5.16 91 1000.4
20260504013504 47 211 1.0 3.0 1.40 3.37 5.04 90 1000.4
20260504012504 47 214 2.0 3.0 1.40 3.37 4.80 90 1000.6
20260504012005 47 213 2.0 3.0 1.40 3.36 4.68 90 1000.6
20260504011504 47 191 1.0 3.0 1.42 3.37 4.58 91 1000.6
20260504011005 47 166 1.0 6.0 1.42 3.37 4.46 90 1000.6
20260504010505 47 190 1.0 6.0 1.40 3.37 4.34 90 1000.6
20260504010004 47 165 3.0 6.0 1.40 3.37 4.22 90 1000.6
20260504005504 47 161 2.0 5.0 1.40 3.37 4.10 90 1000.7
20260504005006 47 200 1.0 5.0 1.40 3.37 3.98 90 1000.8
20260504004504 47 168 1.0 5.0 1.40 3.36 3.86 90 1000.9
20260504004004 47 195 1.0 3.0 1.42 3.37 3.76 90 1001.0
20260504003504 47 189 1.0 3.0 1.42 3.37 3.64 90 1001.0
20260504003004 47 193 1.0 3.0 1.40 3.37 3.52 90 1001.1
20260504002504 47 193 1.0 5.0 1.40 3.37 3.40 90 1001.1
20260504002004 47 185 0.0 8.0 1.40 3.37 3.28 90 1001.2
20260504001504 47 154 2.0 8.0 1.40 3.37 3.16 90 1001.2
20260504001004 47 168 4.0 8.0 1.40 3.36 3.04 90 1001.3
20260504000504 47 176 1.0 5.0 1.42 3.37 2.94 90 1001.2
20260504000004 47 200 2.0 3.0 1.42 3.37 2.82 90 1001.2
20260503235504 47 192 1.0 3.0 1.40 3.37 2.70 91 1001.3
20260503235006 47 200 2.0 5.0 1.40 3.37 2.58 91 1001.5
20260503234506 47 174 2.0 5.0 1.40 3.37 2.46 91 1001.5
20260503233505 48 152 2.0 8.0 1.40 3.36 2.22 92 1001.7
20260503233004 48 189 3.0 8.0 1.42 3.37 2.12 92 1001.8
20260503232504 48 194 2.0 3.0 1.40 3.37 2.00 92 1001.9
20260503232004 48 207 1.0 5.0 1.40 3.37 1.88 92 1002.0
20260503231505 48 197 2.0 5.0 1.40 3.37 1.76 92 1002.1
20260503231005 48 218 1.0 3.0 1.40 3.37 1.64 92 1002.2
20260503230004 48 194 2.0 7.0 1.40 3.36 1.40 92 1002.2
20260503225504 48 184 2.0 7.0 1.42 3.37 1.30 92 1002.2
20260503225004 48 185 2.0 3.0 1.42 3.37 1.18 92 1002.2
20260503224504 48 206 1.0 5.0 1.40 3.37 1.06 92 1002.2
20260503224004 48 190 2.0 5.0 1.40 3.37 0.94 91 1002.2
20260503223505 48 211 1.0 3.0 1.40 3.37 0.82 91 1002.2
20260503223005 48 215 1.0 5.0 1.40 3.36 0.70 91 1002.3
20260503222504 48 151 2.0 5.0 1.42 3.37 0.60 91 1002.3
20260503222004 48 163 2.0 6.0 1.42 3.37 0.48 91 1002.3
20260503221504 48 163 2.0 6.0 1.42 3.37 0.36 91 1002.2
20260503221005 48 164 1.0 5.0 1.40 3.37 0.24 91 1002.2
20260503220505 48 159 1.0 5.0 1.40 3.37 0.12 91 1002.3
20260503220004 48 132 2.0 5.0 1.40 3.37 0.00 90 1002.5
20260503215504 48 141 0.0 5.0 1.40 3.36 3.36 90 1002.5
20260503215006 48 154 2.0 5.0 1.42 3.36 3.35 90 1002.5
20260503214504 48 138 2.0 5.0 1.42 3.36 3.33 90 1002.5
20260503214004 48 137 2.0 3.0 1.40 3.36 3.32 90 1002.4
20260503213005 48 147 1.0 5.0 1.40 3.36 3.30 90 1002.6
20260503212505 48 133 2.0 5.0 1.40 3.36 3.29 90 1002.6
20260503211504 49 130 3.0 7.0 1.42 3.36 3.26 89 1002.8
20260503211004 49 136 2.0 6.0 1.40 3.36 3.25 89 1002.8
20260503210503 49 134 2.0 6.0 1.40 3.36 3.24 89 1002.8
20260503210005 49 139 1.0 3.0 1.40 3.36 3.23 89 1002.8
20260503205504 49 158 2.0 6.0 1.40 3.36 3.22 89 1002.9
20260503205005 49 169 1.0 6.0 1.40 3.36 3.20 89 1003.0
20260503204505 49 171 2.0 6.0 1.40 3.36 3.19 88 1003.1
20260503204004 49 171 1.0 5.0 1.42 3.36 3.18 88 1003.1
20260503203505 49 147 2.0 5.0 1.40 3.36 3.17 88 1003.2
20260503202504 49 162 1.0 8.0 1.40 3.36 3.15 88 1003.2
20260503201504 49 176 1.0 5.0 1.40 3.36 3.12 88 1003.2
20260503201004 49 146 1.0 6.0 1.42 3.36 3.11 88 1003.2
20260503200505 49 162 3.0 6.0 1.42 3.36 3.10 87 1003.3
20260503200004 49 133 2.0 3.0 1.40 3.36 3.09 87 1003.3
20260503195504 49 187 1.0 3.0 1.40 3.36 3.08 87 1003.4
20260503195006 49 157 1.0 6.0 1.40 3.36 3.06 87 1003.4
20260503194504 49 149 2.0 7.0 1.40 3.36 3.05 87 1003.4
20260503194004 49 125 2.0 7.0 1.40 3.36 3.04 86 1003.4
20260503193505 49 159 3.0 8.0 1.42 3.36 3.03 86 1003.4
20260503193004 49 141 3.0 8.0 1.42 3.36 3.02 86 1003.4
20260503192504 49 189 2.0 7.0 1.40 3.36 3.01 86 1003.3
20260503192004 49 157 1.0 6.0 1.40 3.36 2.99 85 1003.5
20260503191504 49 153 2.0 6.0 1.40 3.36 2.98 85 1003.4
20260503191005 49 179 3.0 7.0 1.40 3.36 2.97 85 1003.4
20260503190505 49 176 3.0 8.0 1.40 3.36 2.96 85 1003.4
20260503190004 50 116 4.0 8.0 1.42 3.36 2.95 84 1003.4
20260503185504 50 199 2.0 8.0 1.42 3.36 2.94 84 1003.4
20260503184504 50 157 3.0 9.0 1.40 3.36 2.91 83 1003.3
20260503184004 50 165 3.0 9.0 1.40 3.36 2.90 83 1003.3
20260503183004 50 143 2.0 7.0 1.40 3.36 2.88 82 1003.3
20260503182504 50 88 2.0 9.0 1.42 3.37 2.87 81 1003.3
20260503182005 51 181 2.0 9.0 1.42 3.37 2.85 81 1003.1
20260503181505 51 152 3.0 7.0 1.40 3.37 2.84 80 1003.1
20260503181005 51 158 3.0 7.0 1.40 3.37 2.83 80 1003.1
20260503180503 51 181 2.0 7.0 1.40 3.37 2.82 79 1003.0
20260503180005 51 140 3.0 7.0 1.40 3.37 2.81 79 1002.9
20260503175503 52 148 2.0 8.0 1.40 3.36 2.79 78 1002.9
20260503174505 52 181 3.0 8.0 1.40 3.37 2.77 77 1002.9
20260503174004 52 163 3.0 9.0 1.40 3.37 2.76 77 1003.0
20260503173504 53 173 4.0 9.0 1.40 3.37 2.75 76 1003.0
20260503173004 53 178 2.0 7.0 1.40 3.37 2.74 75 1003.1
20260503172504 53 201 3.0 10.0 1.40 3.37 2.72 75 1003.2
20260503172005 54 155 4.0 10.0 1.40 3.36 2.71 74 1003.3
20260503171504 54 201 3.0 10.0 1.42 3.37 2.70 73 1003.3
20260503171004 54 138 4.0 10.0 1.40 3.37 2.69 72 1003.3
20260503170504 55 169 2.0 7.0 1.40 3.37 2.68 72 1003.3